Weather History for KIML - January, 2013

Change the Weather History Date:

Sunday, January 27, 2013

  Actual Average Record
Temperature  
Mean Temperature 43 °F 29 °F  
Max Temperature 56 °F 42 °F 77 °F (2015)
Min Temperature 30 °F 16 °F -25 °F (1948)
Degree Days  
Heating Degree Days 22 36  
Month to date heating degree days 1004 992  
Cooling Degree Days 0 0  
Month to date cooling degree days 0 0  
Year to date cooling degree days 0 0  
Moisture  
Dew Point 36 °F    
Average Humidity 80    
Maximum Humidity 100    
Minimum Humidity 59    
Precipitation  
Precipitation 0.02 in 0.01 in 1.62 in (1944)
Sea Level Pressure  
Sea Level Pressure 29.74 in    
Wind  
Wind Speed 5 mph (NNW)    
Max Wind Speed 14 mph    
Max Gust Speed 16 mph    
Visibility 5 miles    
Events Fog , Rain    
T = Trace of Precipitation, MM = Missing Value Source: NWS Daily Summary

Daily Weather History Graph

Daily Weather History Graph

Search for Another Location

Airport or City:

Trip Planner

Search our weather history database for the weather conditions in past years. The results will help you decide how hot, cold, wet, or windy it might be!

Date:

Astronomy

Jan. 27, 2013 Rise Set
Actual Time 7:00 AM MST 4:58 PM MST
Civil Twilight 6:31 AM MST 5:28 PM MST
Nautical Twilight 5:58 AM MST 6:00 PM MST
Astronomical Twilight 5:25 AM MST 6:33 PM MST
Moon 5:55 PM MST (1/27) 6:53 AM MST (1/27)
Length of Visible Light 10h 57m
Length of Day
9h 58m
Full, 100% of the Moon is Illuminated
Jan 27
Full
Feb 3
Last Quarter
Feb 10
New
Feb 17
First Quarter
Feb 25
Full

Hourly Weather History & Observations

Time (MST) Temp. Windchill Dew Point Humidity Pressure Visibility Wind Dir Wind Speed Gust Speed Precip Events Conditions
12:53 AM 37.0 °F 33.3 °F 35.1 °F 93% 29.77 in 8.0 mi SE 4.6 mph - 0.01 in Rain Light Rain
1:53 AM 36.0 °F 31.1 °F 34.0 °F 93% 29.73 in 7.0 mi ENE 5.8 mph - 0.00 in   Overcast
2:53 AM 36.0 °F 32.1 °F 34.0 °F 93% 29.72 in 4.0 mi East 4.6 mph - N/A   Overcast
3:08 AM 35.6 °F 32.8 °F 35.6 °F 100% 29.70 in 3.0 mi ESE 3.5 mph - N/A   Overcast
3:15 AM 35.6 °F 32.8 °F 35.6 °F 100% 29.70 in 2.5 mi East 3.5 mph - N/A   Overcast
3:46 AM 35.6 °F 32.8 °F 35.6 °F 100% 29.70 in 1.5 mi ESE 3.5 mph - N/A   Overcast
3:53 AM 36.0 °F 33.3 °F 35.1 °F 97% 29.71 in 1.0 mi East 3.5 mph - N/A   Overcast
4:00 AM 35.6 °F - 35.6 °F 100% 29.70 in 0.5 mi Calm Calm - 0.00 in Fog , Rain Light Rain
4:17 AM 35.6 °F - 35.6 °F 100% 29.69 in 0.2 mi Calm Calm - 0.00 in Fog , Rain Light Rain
4:53 AM 35.1 °F 31.0 °F 34.0 °F 96% 29.71 in 0.2 mi NNE 4.6 mph - 0.00 in Fog Fog
5:13 AM 35.6 °F 31.7 °F 33.8 °F 93% 29.67 in 0.2 mi NNE 4.6 mph - N/A Fog Fog
5:53 AM 35.1 °F - 35.1 °F 100% 29.72 in 0.2 mi Calm Calm - N/A Fog Fog
6:53 AM 35.1 °F 31.0 °F 34.0 °F 96% 29.73 in 0.2 mi NNW 4.6 mph - N/A Fog Fog
7:53 AM 35.1 °F 30.1 °F 34.0 °F 96% 29.74 in 0.2 mi WNW 5.8 mph - 0.01 in Fog Fog
8:15 AM 35.6 °F 29.2 °F 35.6 °F 100% 29.71 in 0.2 mi NW 8.1 mph - N/A Fog Fog
8:38 AM 35.6 °F 30.7 °F 35.6 °F 100% 29.72 in 0.5 mi WNW 5.8 mph - N/A Fog Fog
8:48 AM 35.6 °F 29.9 °F 35.6 °F 100% 29.72 in 2.0 mi NW 6.9 mph - N/A   Overcast
8:53 AM 37.0 °F 32.4 °F 36.0 °F 96% 29.76 in 2.5 mi West 5.8 mph - N/A   Overcast
9:13 AM 37.4 °F 34.9 °F 37.4 °F 100% 29.71 in 2.5 mi WNW 3.5 mph - N/A   Overcast
9:22 AM 37.4 °F 33.8 °F 37.4 °F 100% 29.71 in 3.0 mi NW 4.6 mph - N/A   Overcast
9:31 AM 37.4 °F 33.8 °F 37.4 °F 100% 29.71 in 4.0 mi NW 4.6 mph - N/A   Overcast
9:53 AM 39.9 °F 33.9 °F 37.9 °F 93% 29.76 in 6.0 mi WNW 9.2 mph - N/A   Overcast
10:53 AM 43.0 °F 37.7 °F 39.9 °F 89% 29.77 in 7.0 mi NW 9.2 mph - N/A   Overcast
11:20 AM 44.6 °F 39.2 °F 41.0 °F 87% 29.72 in 10.0 mi NW 10.4 mph - N/A   Overcast
11:53 AM 46.9 °F - 42.1 °F 83% 29.73 in 10.0 mi NNW 11.5 mph - N/A   Overcast
12:53 PM 53.1 °F - 42.1 °F 66% 29.71 in 10.0 mi NNW 10.4 mph - N/A   Partly Cloudy
1:49 PM 55.4 °F - 41.0 °F 58% 29.70 in 10.0 mi NW 6.9 mph - N/A   Mostly Cloudy
1:53 PM 54.0 °F - 39.9 °F 59% 29.71 in 10.0 mi NW 5.8 mph - N/A   Scattered Clouds
2:24 PM 53.6 °F - 39.2 °F 58% 29.71 in 10.0 mi West 3.5 mph - N/A   Mostly Cloudy
2:53 PM 55.0 °F - 41.0 °F 59% 29.73 in 10.0 mi NNE 5.8 mph - N/A   Overcast
3:14 PM 53.6 °F - 39.2 °F 58% 29.71 in 10.0 mi NW 5.8 mph - N/A   Scattered Clouds
3:53 PM 54.0 °F - 39.9 °F 59% 29.73 in 10.0 mi Calm Calm - N/A   Clear
4:53 PM 48.9 °F - 39.0 °F 69% 29.75 in 10.0 mi SE 3.5 mph - N/A   Clear
5:53 PM 41.0 °F 38.0 °F 37.0 °F 86% 29.79 in 10.0 mi SE 4.6 mph - N/A   Clear
6:53 PM 36.0 °F 31.1 °F 34.0 °F 93% 29.80 in 10.0 mi SSE 5.8 mph - N/A   Clear
7:53 PM 36.0 °F 31.1 °F 34.0 °F 93% 29.80 in 10.0 mi South 5.8 mph - N/A   Clear
8:53 PM 32.0 °F 25.6 °F 30.9 °F 96% 29.82 in 10.0 mi SSE 6.9 mph - N/A   Clear
9:53 PM 33.1 °F - 32.0 °F 96% 29.82 in 10.0 mi Calm Calm - N/A   Clear
10:53 PM 35.1 °F 30.1 °F 34.0 °F 96% 29.81 in 10.0 mi SSE 5.8 mph - N/A   Clear
11:53 PM 33.1 °F 30.0 °F 32.0 °F 96% 29.81 in 4.0 mi SSE 3.5 mph - N/A   Clear
11:56 PM 33.8 °F 30.8 °F 32.0 °F 93% 29.77 in 1.8 mi SSE 3.5 mph - N/A   Clear